Baltimore, MD

3:49 PM EST on December 02, 2016 (GMT -0500)
Baltimore-Washington International

Weather History for KBWI - June, 2013

Change the Weather History Date:

Friday, June 21, 2013

  Actual Average Record
Temperature  
Mean Temperature 69 °F 74 °F  
Max Temperature 82 °F 85 °F 100 °F (1923)
Min Temperature 56 °F 64 °F 50 °F (1968)
Degree Days  
Heating Degree Days 0 0  
Month to date heating degree days 0 13  
Since 1 June heating degree days 0 13  
Since 1 July heating degree days 4486 4762  
Cooling Degree Days 4 9  
Month to date cooling degree days 157 145  
Year to date cooling degree days 288 229  
Since 1 June cooling degree days 157 145  
Growing Degree Days 18 (Base 50)    
Moisture  
Dew Point 53 °F    
Average Humidity 60    
Maximum Humidity 93    
Minimum Humidity 26    
Precipitation  
Precipitation 0.00 in 0.11 in 2.19 in (1972)
Month to date precipitation 6.61 2.48  
Year to date precipitation 20.47 19.51  
Snow  
Snow 0.00 in 0.00 in - ()
Month to date snowfall 0.0 0.0  
Since 1 July snowfall 8.0 20.1  
Snow Depth 0.00 in    
Sea Level Pressure  
Sea Level Pressure 30.27 in    
Wind  
Wind Speed 4 mph (SE)    
Max Wind Speed 14 mph    
Max Gust Speed 17 mph    
Visibility 10 miles    
Events      
T = Trace of Precipitation, MM = Missing Value Source: NWS Daily Summary

Daily Weather History Graph

Daily Weather History Graph

Search for Another Location

Airport or City:

Trip Planner

Search our weather history database for the weather conditions in past years. The results will help you decide how hot, cold, wet, or windy it might be!

Date:

Astronomy

Jun. 21, 2013 Rise Set
Actual Time 5:40 AM EDT 8:36 PM EDT
Civil Twilight 5:08 AM EDT 9:08 PM EDT
Nautical Twilight 4:27 AM EDT 9:49 PM EDT
Astronomical Twilight 3:40 AM EDT 10:36 PM EDT
Moon 6:45 PM EDT (6/21) 3:53 AM EDT (6/21)
Length of Visible Light 16h 00m
Length of Day
14h 55m
Waxing Gibbous, 95% of the Moon is Illuminated
Jun 21
Waxing Gibbous
Jun 23
Full
Jun 30
Last Quarter
Jul 8
New
Jul 15
First Quarter

Hourly Weather History & Observations

Time (EDT) Temp. Dew Point Humidity Pressure Visibility Wind Dir Wind Speed Gust Speed Precip Events Conditions
12:54 AM 64.0 °F 54.0 °F 70% 30.27 in 10.0 mi Calm Calm - N/A   Scattered Clouds
1:54 AM 62.1 °F 55.9 °F 80% 30.29 in 10.0 mi Calm Calm - N/A   Mostly Cloudy
2:54 AM 60.1 °F 55.0 °F 83% 30.29 in 10.0 mi Calm Calm - N/A   Mostly Cloudy
3:54 AM 59.0 °F 55.0 °F 87% 30.28 in 10.0 mi Calm Calm - N/A   Mostly Cloudy
4:54 AM 57.9 °F 55.0 °F 90% 30.27 in 10.0 mi Calm Calm - N/A   Scattered Clouds
5:54 AM 57.0 °F 54.0 °F 89% 30.28 in 10.0 mi Calm Calm - N/A   Partly Cloudy
6:54 AM 60.1 °F 55.9 °F 86% 30.29 in 10.0 mi Calm Calm - N/A   Clear
7:54 AM 66.9 °F 54.0 °F 63% 30.30 in 10.0 mi Calm Calm - N/A   Clear
8:54 AM 72.0 °F 54.0 °F 53% 30.30 in 10.0 mi Calm Calm - N/A   Clear
9:54 AM 73.0 °F 51.1 °F 46% 30.30 in 10.0 mi SSE 3.5 mph - N/A   Clear
10:54 AM 75.0 °F 51.1 °F 43% 30.30 in 10.0 mi East 5.8 mph - N/A   Clear
11:54 AM 78.1 °F 50.0 °F 37% 30.29 in 10.0 mi East 4.6 mph - N/A   Clear
12:54 PM 80.1 °F 50.0 °F 35% 30.29 in 10.0 mi SE 5.8 mph 16.1 mph N/A   Clear
1:54 PM 80.1 °F 48.0 °F 32% 30.29 in 10.0 mi ESE 10.4 mph 17.3 mph N/A   Scattered Clouds
2:54 PM 81.0 °F 43.0 °F 26% 30.29 in 10.0 mi East 6.9 mph - N/A   Scattered Clouds
3:54 PM 81.0 °F 46.0 °F 29% 30.27 in 10.0 mi SE 10.4 mph - N/A   Scattered Clouds
4:54 PM 80.1 °F 43.0 °F 27% 30.26 in 10.0 mi ESE 10.4 mph - N/A   Scattered Clouds
5:54 PM 79.0 °F 51.1 °F 38% 30.25 in 10.0 mi SE 5.8 mph - N/A   Scattered Clouds
6:54 PM 78.1 °F 51.1 °F 39% 30.25 in 10.0 mi SSE 5.8 mph - N/A   Scattered Clouds
7:54 PM 75.9 °F 53.1 °F 45% 30.24 in 10.0 mi SE 3.5 mph - N/A   Scattered Clouds
8:54 PM 73.0 °F 57.9 °F 59% 30.23 in 10.0 mi SE 4.6 mph - N/A   Partly Cloudy
9:54 PM 68.0 °F 60.1 °F 76% 30.25 in 10.0 mi Calm Calm - N/A   Partly Cloudy
10:54 PM 69.1 °F 61.0 °F 75% 30.25 in 10.0 mi South 3.5 mph - N/A   Scattered Clouds
11:54 PM 69.1 °F 63.0 °F 81% 30.25 in 10.0 mi SSE 3.5 mph - N/A   Scattered Clouds